Regional Weather Roundup
Issued by NWS

Home | Current Version | Previous Version | Text Only | Print | Product List | Glossary On
Versions: 1 2 3 4 5 6 7 8 9 10 11 12 13 14 15 16 17 18 19 20 21 22 23 24 25 26 27 28 29 30 31 32 33 34 35 36 37 38 39 40 41 42 43 44 45 46
000
ASPQ40 PGUM 252112
RWRPQ
WEATHER ROUNDUP FOR THE MARIANAS AND MICRONESIA
NATIONAL WEATHER SERVICE TIYAN GU
700 AM CHST FRI DEC 26 2014

GUZ001>004-252200-
MARIANA ISLANDS-

CITY           SKY/WX    TMP DP  RH WIND       PRES   REMARKS
GUAM AIRPORT   PTCLDY    82  75  78 NE13      29.84R
ANDERSEN AFB   CLOUDY    81  75  83 NE20G25   29.84R
ROTA AIRPORT   PTCLDY    79  73  83 E17       29.85R
TINIAN AP      MOCLDY    81  73  78 E12       29.84R
SAIPAN AP      CLOUDY    79  75  89 E21G28    29.85R

$$

PMZ161-252200-
REPUBLIC OF PALAU-

CITY           SKY/WX    TMP DP  RH WIND       PRES   REMARKS
KOROR AP       LGT RAIN  79  77  94 NE14      29.71R
KOROR WSO      LGT RAIN  77  75  94 E13       29.70R

$$

PMZ171>174-252200-
FEDERATED STATES OF MICRONESIA-

CITY           SKY/WX    TMP DP  RH WIND       PRES   REMARKS
YAP AIRPORT    CLOUDY    82  77  83 E8        29.74R HX  91
CHUUK AP       CLOUDY    82  73  74 NE9G18    29.77R
POHNPEI AP     NOT AVBL
POHNPEI WSO    CLOUDY    82  75  78 NE5       29.79R
KOSRAE AP      NOT AVBL

$$

PMZ181-252200-
REPUBLIC OF THE MARSHALL ISLANDS-

CITY           SKY/WX    TMP DP  RH WIND       PRES   REMARKS
KWAJALEIN AP   SUNNY     82  66  57 NE21G28   29.82R
MAJURO AP      NOT AVBL
MAJURO WSO     CLOUDY    84  75  74 NE21      29.77R HX  92

$$




USA.gov is the U.S. government's official web portal to all federal, state and local government web resources and services.